EW1472 Weather Reports


time (UTC)temp
C
wind
direction
speed
KPH
gust
KPH
rain 1hr
cm
rain 24hr
cm
rain mn
cm
humidity
%
barometer
mb
20260503022005 21 138 0.0 3.2 0.00 0.00 0.00 93 1018.0
20260503021010 21 209 0.0 0.0 0.00 0.00 0.00 94 1018.1
20260503020006 20 246 0.0 4.8 0.00 0.00 0.00 94 1018.2
20260503015005 21 245 4.8 6.4 0.00 0.00 0.00 94 1018.3
20260503014005 21 298 0.0 0.0 0.00 0.00 0.00 95 1018.5
20260503012005 20 194 0.0 1.6 0.00 0.00 0.00 95 1019.1
20260503011005 20 194 0.0 4.8 0.00 0.00 0.00 95 1019.1
20260503010005 20 161 0.0 0.0 0.00 0.00 0.00 96 1019.2
20260503003006 20 106 0.0 1.6 0.00 0.00 0.00 98 1019.6
20260503001005 19 260 0.0 0.0 0.00 0.00 0.00 99 1019.7
20260503000006 18 278 0.0 0.0 0.00 0.00 0.00 99 1019.7
20260502235006 18 269 0.0 0.0 0.00 0.00 0.00 99 1019.8
20260502234005 18 274 0.0 0.0 0.00 0.00 0.00 99 1019.8
20260502233005 18 231 0.0 1.6 0.00 0.00 0.00 99 1019.7
20260502231006 17 207 0.0 0.0 0.00 0.00 0.00 99 1019.9
20260502225006 17 336 0.0 0.0 0.00 0.00 0.00 99 1019.9
20260502223006 17 336 0.0 0.0 0.00 0.00 0.00 99 1019.7
20260502222006 17 344 0.0 0.0 0.00 0.00 0.00 99 1019.4
20260502221006 17 344 0.0 0.0 0.00 0.00 0.00 99 1019.5
20260502220006 17 344 0.0 0.0 0.00 0.00 0.00 99 1019.2
20260502215005 17 344 0.0 0.0 0.00 0.00 0.00 99 1019.3
20260502214005 17 344 0.0 0.0 0.00 0.00 0.00 99 1019.1
20260502213006 16 344 0.0 0.0 0.00 0.00 0.00 99 1018.9
20260502212006 16 344 0.0 0.0 0.00 0.00 0.00 99 1018.8
20260502211006 16 344 0.0 0.0 0.00 0.00 0.00 99 1019.1
20260502210006 15 344 0.0 0.0 0.00 0.00 0.00 99 1018.8
20260502204005 15 344 0.0 0.0 0.00 0.00 0.00 99 1018.7
20260502203005 15 344 0.0 0.0 0.00 0.00 0.00 99 1018.5
20260502202010 15 344 0.0 0.0 0.00 0.00 0.00 99 1018.5
20260502201005 15 344 0.0 0.0 0.00 0.00 0.00 99 1018.7
20260502200005 15 344 0.0 0.0 0.00 0.00 0.00 99 1018.5
20260502195006 15 344 0.0 0.0 0.00 0.00 0.00 99 1018.3
20260502194010 15 344 0.0 0.0 0.00 0.00 0.00 99 1018.2
20260502193006 15 337 0.0 0.0 0.00 0.00 0.00 99 1018.2
20260502192005 15 337 0.0 0.0 0.00 0.00 0.00 99 1018.4
20260502191005 15 336 0.0 0.0 0.00 0.00 0.00 99 1018.4
20260502190005 15 336 0.0 0.0 0.00 0.00 0.00 99 1018.2
20260502184006 15 336 0.0 0.0 0.00 0.00 0.00 99 1018.2
20260502182005 15 336 0.0 0.0 0.00 0.00 0.00 99 1018.3
20260502181005 16 88 0.0 0.0 0.00 0.00 0.00 99 1018.3
20260502163006 17 271 0.0 0.0 0.00 0.00 0.00 99 1018.8
20260502162006 17 271 0.0 0.0 0.00 0.00 0.00 99 1018.8
20260502161011 17 271 0.0 0.0 0.00 0.00 0.00 99 1018.8
20260502152005 17 271 0.0 0.0 0.00 0.00 0.00 99 1019.3
20260502151006 17 271 0.0 0.0 0.00 0.00 0.00 99 1019.2
20260502123005 18 268 0.0 0.0 0.00 0.00 0.74 99 1019.6
20260502122006 18 268 0.0 0.0 0.00 0.00 0.74 99 1019.7
20260502115005 18 268 0.0 0.0 0.00 0.00 0.74 99 1019.9
20260502113005 18 268 0.0 0.0 0.00 0.00 0.71 99 1019.7
20260502112006 18 268 0.0 0.0 0.00 0.00 0.71 99 1019.7
20260502111006 18 268 0.0 0.0 0.00 0.00 0.71 99 1019.7
20260502110006 18 268 0.0 0.0 0.00 0.00 0.71 99 1019.7
20260502105005 18 268 0.0 0.0 0.00 0.00 0.71 99 1019.7
20260502104005 18 268 0.0 0.0 0.00 0.00 0.71 99 1019.8
20260502103006 18 268 0.0 0.0 0.00 0.00 0.71 99 1019.7
20260502102005 18 268 0.0 0.0 0.00 0.00 0.71 99 1019.7
20260502101005 18 268 0.0 0.0 0.00 0.00 0.71 99 1019.8
20260502091005 18 268 0.0 0.0 0.00 0.00 0.71 99 1019.1
20260502061005 19 321 0.0 0.0 0.00 0.00 0.71 99 1018.0
20260502060007 19 322 0.0 0.0 0.00 0.00 0.71 98 1017.9
20260502055006 19 321 0.0 0.0 0.00 0.00 0.71 98 1018.0
20260502054005 19 321 0.0 3.2 0.00 0.00 0.71 98 1018.0
20260502053005 19 227 0.0 3.2 0.00 0.00 0.71 98 1017.9
20260502052005 20 64 0.0 1.6 0.00 0.00 0.71 98 1018.0
20260502051009 20 284 0.0 0.0 0.00 0.00 0.71 99 1017.7
20260502050007 20 304 0.0 0.0 0.00 0.00 0.71 99 1017.9
20260502045005 20 304 0.0 0.0 0.00 0.00 0.71 99 1018.0
20260502044005 20 303 0.0 0.0 0.00 0.00 0.71 99 1018.1
20260502042006 19 304 0.0 0.0 0.00 0.00 0.71 98 1018.0
20260502041005 20 304 0.0 0.0 0.00 0.00 0.71 98 1018.1
20260502040006 20 303 0.0 0.0 0.00 0.00 0.71 98 1018.0
20260502035005 20 303 0.0 0.0 0.00 0.00 0.69 98 1018.3
20260502034006 20 304 0.0 0.0 0.00 0.00 0.66 98 1018.2
20260502033005 19 291 0.0 0.0 0.00 0.00 0.61 98 1018.1
20260502032005 19 291 0.0 0.0 0.00 0.00 0.61 98 1018.2
20260502031005 20 265 0.0 1.6 0.00 0.00 0.61 98 1018.4
20260502030006 20 330 0.0 0.0 0.00 0.00 0.61 97 1018.6
20260502025005 20 341 0.0 1.6 0.00 0.00 0.58 97 1018.6
20260502024005 20 97 0.0 8.0 0.00 0.00 0.56 97 1018.8